Voltar ao catálogo

STARLINK-34556

AtivoComunicaçõesVLEO
NORAD 64733·PAYLOAD·🇺🇸 United States

Lançado Jul 2, 2025 de Cape Canaveral Space Force Station

Loading…

Próximas Passagens (próximas 24 horas)

TLE

AtualizadoSource: CelesTrak SupGP

Época: Sep 14, 2026, 15:02 UTC

1 64733C 25144K   26257.62687500 -.00080741  00000+0 -23860-2 0  2574
2 64733  53.1599  16.8495 0001182  86.9191 214.4824 15.34424098    12

Acompanhe STARLINK-34556 em tempo real com AllMySat

Download on the App Store